Regional Weather Roundup
Issued by NWS

Home | Current Version | Previous Version | Graphics & Text | Print | Product List | Glossary On
Versions: 1 2 3 4 5 6 7 8 9 10 11 12 13 14 15 16 17 18 19 20 21 22 23 24 25 26 27 28 29 30 31 32 33 34 35 36 37 38 39 40 41 42 43 44 45 46 47 48 49 50
000
ASUS45 KBOI 241310
RWRID

IDAHO REGIONAL WEATHER ROUNDUP
NATIONAL WEATHER SERVICE BOISE ID
700 AM MDT SUN JUL 24 2016

NOTE: "FAIR" INDICATES FEW OR NO CLOUDS BELOW 12000 FEET
WITH NO SIGNIFICANT WEATHER AND/OR OBSTRUCTIONS TO VISIBILITY

IDZ012-014-241400-
SOUTHWEST IDAHO


CITY           SKY/WX    TMP DP  RH WIND       PRES   REMARKS
BOISE          CLEAR     58  40  51 CALM      30.07R
CALDWELL       NOT AVBL
MOUNTAIN HOME  CLEAR     61  38  41 W6        30.07R
$$

IDZ016-017-241400-
SOUTHCENTRAL IDAHO


CITY           SKY/WX    TMP DP  RH WIND       PRES   REMARKS
BURLEY         CLEAR     50  39  66 E3        30.14R
JEROME         CLEAR     56  32  40 S3        30.13R
TWIN FALLS     CLEAR     62  26  25 S13       30.13R
$$

IDZ019>023-241400-
SOUTHEAST IDAHO


CITY           SKY/WX    TMP DP  RH WIND       PRES   REMARKS
IDAHO FALLS    CLOUDY    43  38  82 CALM      30.18R
POCATELLO      CLEAR     55  27  34 S8        30.17R
REXBURG        CLEAR     47  36  65 NE7       30.19R
$$

IDZ006-010-011-018-031-032-241400-
CENTRAL IDAHO MOUNTAINS


CITY           SKY/WX    TMP DP  RH WIND       PRES   REMARKS
MCCALL         CLEAR     47  40  76 CALM      30.18S
HAILEY         CLEAR     50  34  53 NW9       30.21R
STANLEY          N/A     33  27  78 CALM      30.30R
SALMON         CLEAR     46  37  71 CALM      30.19R
CHALLIS        CLEAR     51  36  56 CALM      30.22R
$$

IDZ002-004-006-007-026-241400-
NORTHERN IDAHO


CITY           SKY/WX    TMP DP  RH WIND       PRES   REMARKS
LEWISTON       CLEAR     58  43  57 SE5       30.10R
LOWELL           N/A     53  49  86 NW3       30.17R
COEUR D`ALENE  CLEAR     55  46  71 E3        30.12R
MULLAN PASS    CLEAR     51  39  63 CALM      30.24S
$$



USA.gov is the U.S. government's official web portal to all federal, state and local government web resources and services.